TimeEDT,TemperatureF,Dew PointF,Humidity,Sea Level PressureIn,VisibilityMPH,Wind Direction,Wind SpeedMPH,Gust SpeedMPH,PrecipitationIn,Events,Conditions,WindDirDegrees,DateUTC
12:51 AM,52.0,39.0,61,29.85,10.0,SSE,8.1,-,N/A,,Scattered Clouds,150,2012-10-17 04:51:00
1:51 AM,53.1,39.0,59,29.85,10.0,SSE,4.6,-,N/A,,Mostly Cloudy,150,2012-10-17 05:51:00
2:51 AM,53.1,39.9,61,29.85,10.0,SE,4.6,-,N/A,,Overcast,140,2012-10-17 06:51:00
3:51 AM,53.1,39.9,61,29.83,10.0,SE,5.8,-,N/A,,Overcast,140,2012-10-17 07:51:00
4:51 AM,54.0,39.9,59,29.82,10.0,SE,6.9,-,N/A,,Overcast,140,2012-10-17 08:51:00
5:51 AM,54.0,39.9,59,29.82,10.0,SE,5.8,-,N/A,,Overcast,140,2012-10-17 09:51:00
6:51 AM,54.0,39.9,59,29.83,10.0,SE,8.1,-,N/A,,Overcast,140,2012-10-17 10:51:00
7:51 AM,53.1,39.9,61,29.83,10.0,SSE,5.8,-,N/A,,Overcast,150,2012-10-17 11:51:00
8:51 AM,53.6,41.0,62,29.84,10.0,SSE,4.6,-,N/A,,Mostly Cloudy,150,2012-10-17 12:51:00
9:51 AM,55.9,42.1,60,29.85,10.0,South,6.9,-,N/A,,Mostly Cloudy,170,2012-10-17 13:51:00
10:51 AM,60.8,44.6,55,29.85,10.0,South,8.1,-,N/A,,Overcast,180,2012-10-17 14:51:00
11:51 AM,64.0,46.0,52,29.83,10.0,South,9.2,-,N/A,,Mostly Cloudy,180,2012-10-17 15:51:00
12:51 PM,68.0,48.0,49,29.81,10.0,South,6.9,-,N/A,,Mostly Cloudy,170,2012-10-17 16:51:00
1:51 PM,73.0,46.9,39,29.78,10.0,South,11.5,-,N/A,,Scattered Clouds,180,2012-10-17 17:51:00
2:51 PM,73.0,45.0,37,29.75,10.0,SSW,12.7,-,N/A,,Mostly Cloudy,210,2012-10-17 18:51:00
3:51 PM,73.0,45.0,37,29.73,10.0,South,12.7,20.7,N/A,,Mostly Cloudy,180,2012-10-17 19:51:00
4:51 PM,73.9,46.9,38,29.71,10.0,SSE,17.3,24.2,N/A,,Mostly Cloudy,160,2012-10-17 20:51:00
5:51 PM,72.0,46.9,41,29.69,10.0,South,11.5,-,N/A,,Mostly Cloudy,170,2012-10-17 21:51:00
6:51 PM,70.0,48.0,46,29.68,10.0,SSE,11.5,-,N/A,,Clear,150,2012-10-17 22:51:00
7:51 PM,69.1,48.9,49,29.68,10.0,SE,9.2,-,N/A,,Mostly Cloudy,140,2012-10-17 23:51:00
8:51 PM,68.0,48.9,50,29.67,10.0,SE,11.5,-,N/A,,Overcast,140,2012-10-18 00:51:00
9:51 PM,66.0,50.0,56,29.65,10.0,SE,10.4,-,N/A,,Overcast,140,2012-10-18 01:51:00
10:51 PM,66.0,48.9,54,29.63,10.0,SE,11.5,-,N/A,,Overcast,140,2012-10-18 02:51:00
11:51 PM,64.9,46.9,52,29.63,10.0,SSE,11.5,-,N/A,,Mostly Cloudy,150,2012-10-18 03:51:00